DW7831 Weather Reports


time (UTC)temp
F
wind
direction
speed
knots
gust
knots
rain 1hr
in
rain 24hr
in
rain mn
in
humidity
%
barometer
mb
20260904093021 65 310 0.0 0.0 0.00 0.00 0.01 100 1012.4
20260904091519 65 310 0.0 0.0 0.00 0.00 0.01 100 1012.2
20260904084506 65 311 0.0 0.0 0.00 0.00 0.01 100 1012.1
20260904083001 65 311 0.0 0.0 0.00 0.00 0.00 100 1012.1
20260904081600 65 311 0.0 0.0 0.00 0.00 0.00 100 1011.9
20260904074549 65 311 0.0 0.0 0.00 0.00 0.00 100 1011.8
20260904073045 65 311 0.0 0.0 0.00 0.00 0.00 100 1011.8
20260904071540 65 311 0.0 0.0 0.00 0.00 0.00 100 1011.8
20260904064534 65 311 0.0 0.0 0.00 0.00 0.00 100 1011.7
20260904063030 66 311 0.0 0.0 0.00 0.00 0.00 100 1011.8
20260904061538 66 311 0.0 0.0 0.00 0.00 0.00 100 1012.3
20260904054522 65 311 0.0 0.0 0.00 0.00 0.00 100 1012.7
20260904053014 65 311 0.0 0.0 0.00 0.00 0.00 100 1012.7
20260904051510 66 311 0.0 0.0 0.00 0.00 0.00 100 1012.7
20260904044505 66 311 0.0 0.0 0.00 0.00 0.00 100 1012.6
20260904043107 66 311 0.0 0.0 0.00 0.00 0.00 100 1012.6
20260904041554 66 311 0.0 0.0 0.00 0.00 0.00 100 1012.9
20260904034547 66 311 0.0 0.0 0.00 0.00 0.08 100 1013.0
20260904033042 66 311 0.0 0.0 0.00 0.00 0.08 100 1013.0
20260904031537 66 311 0.0 0.0 0.00 0.00 0.08 100 1013.2
20260904024533 66 311 0.0 0.0 0.00 0.00 0.08 100 1013.3
20260904023028 66 311 0.0 0.0 0.00 0.00 0.08 100 1013.3
20260904021525 66 311 0.0 0.0 0.00 0.00 0.06 100 1013.5
20260904014515 66 311 0.0 0.0 0.00 0.00 0.06 100 1013.8
20260904013011 66 311 0.0 0.0 0.00 0.00 0.06 100 1013.7
20260904011507 66 311 0.0 0.0 0.00 0.00 0.06 100 1013.8
20260904004600 67 311 0.0 0.0 0.00 0.00 0.06 100 1013.5
20260904004501 67 311 0.0 0.0 0.00 0.00 0.06 100 1013.4
20260904003055 68 311 0.0 0.0 0.00 0.00 0.06 100 1013.5
20260904001553 68 311 0.0 0.0 0.00 0.00 0.06 100 1013.4
20260904000148 69 311 0.0 0.0 0.00 0.00 0.06 100 1013.4
20260903234543 70 311 0.0 0.0 0.00 0.00 0.06 100 1013.2
20260903233046 71 311 0.0 0.0 0.00 0.00 0.06 12 1013.3
20260903231535 73 311 0.0 0.0 0.00 0.00 0.06 23 1012.8
20260903230131 74 311 0.0 0.0 0.00 0.00 0.06 37 1012.7
20260903224530 74 311 0.0 0.0 0.00 0.00 0.06 40 1012.9
20260903223025 75 311 0.0 0.0 0.00 0.00 0.06 41 1012.5
20260903221521 75 311 0.0 0.0 0.00 0.00 0.06 38 1012.7
20260903220125 76 311 0.0 0.0 0.00 0.00 0.06 42 1012.5
20260903214514 76 311 0.0 0.0 0.00 0.00 0.06 44 1012.6
20260903213007 77 310 0.9 0.0 0.00 0.00 0.06 48 1012.8
20260903211504 78 265 1.7 0.0 0.00 0.00 0.06 50 1012.7
20260903210114 78 255 1.7 0.0 0.00 0.00 0.06 48 1012.9
20260903204557 78 226 1.7 0.0 0.00 0.00 0.06 45 1012.8
20260903203052 78 294 0.9 0.0 0.00 0.00 0.06 43 1012.5
20260903201549 78 234 2.6 0.0 0.00 0.00 0.06 44 1012.7
20260903200045 78 231 4.3 0.0 0.00 0.00 0.06 42 1012.7
20260903194544 77 246 1.7 0.0 0.00 0.00 0.06 41 1012.9
20260903193040 77 236 2.6 0.0 0.00 0.00 0.06 37 1013.1
20260903191548 76 254 2.6 0.0 0.00 0.00 0.06 35 1013.2
20260903190034 76 277 1.7 0.0 0.00 0.00 0.06 32 1013.4
20260903184540 75 273 0.9 0.0 0.00 0.00 0.06 32 1013.5
20260903183022 75 267 2.6 0.0 0.00 0.00 0.06 30 1013.6
20260903181518 74 228 4.3 0.0 0.00 0.00 0.06 26 1013.8
20260903180015 74 257 1.7 0.0 0.00 0.00 0.06 24 1013.8
20260903174514 74 240 5.2 0.0 0.00 0.00 0.06 29 1013.8
20260903173017 74 239 0.9 0.0 0.00 0.00 0.06 24 1013.8
20260903171505 74 190 3.5 0.0 0.00 0.00 0.06 27 1013.9
20260903170007 74 299 4.3 0.0 0.00 0.00 0.06 20 1014.3
20260903164604 73 242 2.6 0.0 0.00 0.00 0.06 11 1014.5
20260903163051 72 310 2.6 0.0 0.00 0.00 0.06 100 1014.6
20260903161552 70 181 2.6 0.0 0.00 0.00 0.06 100 1014.6
20260903160043 70 200 2.6 0.0 0.00 0.00 0.06 100 1014.9
20260903154541 69 235 3.5 0.0 0.00 0.00 0.06 100 1014.9
20260903153038 69 239 2.6 0.0 0.00 0.00 0.06 100 1015.0
20260903151532 69 227 2.6 0.0 0.00 0.00 0.06 100 1015.1
20260903150033 69 240 1.7 0.0 0.00 0.00 0.06 100 1014.8
20260903144527 69 226 1.7 0.0 0.00 0.00 0.06 100 1014.6
20260903143043 69 198 0.9 0.0 0.00 0.00 0.06 100 1014.7
20260903141517 68 196 0.9 0.0 0.00 0.00 0.06 100 1014.5
20260903140018 68 200 1.7 0.0 0.00 0.00 0.06 100 1014.6
20260903134510 68 198 0.9 0.0 0.00 0.00 0.06 100 1014.6
20260903133005 68 200 2.6 0.0 0.00 0.00 0.06 100 1014.5
20260903131501 68 205 1.7 0.0 0.00 0.00 0.06 100 1014.5
20260903130117 67 204 0.9 0.0 0.00 0.00 0.06 100 1014.5
20260903124553 67 204 1.7 0.0 0.00 0.00 0.06 100 1014.5
20260903123049 67 208 2.6 0.0 0.00 0.00 0.06 100 1014.6
20260903121544 66 207 1.7 0.0 0.00 0.00 0.06 100 1014.7
20260903120041 66 222 0.0 0.0 0.00 0.00 0.06 100 1014.7
20260903114538 66 223 0.9 0.0 0.00 0.00 0.06 100 1014.6
20260903113041 0 0.0 0.0 0.00 0.00 0.06 1014.5
20260903111530 0 0.0 0.0 0.00 0.00 0.06 1014.6
20260903110028 0 0.0 0.0 0.00 0.00 0.06 1014.7
20260903104522 0 0.0 0.0 0.00 0.00 0.06 1014.5
20260903103017 65 209 1.7 0.0 0.00 0.00 0.06 100 1014.6
20260903101513 65 209 1.7 0.0 0.00 0.00 0.06 100 1014.8
20260903100011 65 209 1.7 0.0 0.00 0.00 0.06 100 1014.7
20260903094505 65 211 0.9 0.0 0.00 0.00 0.06 100 1014.7